Location: Camp Creek
(33.9000°N, 111.8167°W)
Time: 21:34:55
(UTC-07:00)

DELTA 2 R/B (1) - Visible Passes

Search period start: 24 February 2017 00:00
Search period end: 06 March 2017 00:00
Orbit: 790 x 804 km, 39.6° (Epoch: 24 February)

Date Brightness Start Highest point End Pass type
(mag) Time Alt. Az. Time Alt. Az. Time Alt. Az.
24 Feb 3.6 20:05:31 10° WNW 20:11:08 78° SSW 20:12:19 56° SE visible
24 Feb 6.5 21:52:59 10° W 21:53:06 10° W 21:53:06 10° W visible
25 Feb 3.6 19:34:41 10° WNW 19:40:19 83° SSW 19:43:28 27° ESE visible
25 Feb 5.8 21:21:59 10° W 21:24:16 19° WSW 21:24:16 19° WSW visible
26 Feb 3.6 19:03:51 10° WNW 19:09:30 88° SSW 19:14:43 12° ESE visible
26 Feb 5.2 20:51:00 10° W 20:55:31 25° SW 20:55:31 25° SW visible
27 Feb 5.2 20:20:03 10° W 20:24:46 28° SW 20:26:53 22° S visible
28 Feb 5.1 19:49:07 10° W 19:53:59 31° SW 19:58:22 12° SSE visible
01 Mar 5.1 19:18:12 10° W 19:23:12 33° SW 19:28:11 10° SSE visible
02 Mar 5.0 18:47:18 10° W 18:52:25 37° SW 18:57:31 10° SSE visible
05 Mar 6.6 19:04:52 10° SW 19:05:42 10° SW 19:06:32 10° SW visible
